sat.trackr.live / text

‹ back to catalog

STARLINK-32484

NORAD 62160 · 2024-224X

PAYLOAD ACTIVE UNKNOWN

§ Identity

Operator
Country
US
Launch date
2024-11-30
Launch site
AFETR
Launch vehicle
Mass (kg)
RCS (m²)

Purposes: comms

External: N2YO · Heavens-Above · Gunter

§ Orbital elements

Epoch: 2026-05-25T04:07:04.545696Z

Period
94.27 min
Inclination
43.0020°
Eccentricity
0.0001299
Mean motion
15.27604076 rev/d
Perigee alt
482.1 km
Apogee alt
483.9 km
Semi-major
6,861.1 km
B*
8.8809e-4
RAAN
86.4527°
Arg perigee
283.0538°
Mean anomaly
77.0168°
Rev number
8,417

§ Raw data

STARLINK-324841 62160U 24224X   26145.17158039  .00024275  00000+0  88809-3 0  99962 62160  43.0020  86.4527 0001299 283.0538  77.0168 15.27604076 84175

JSON: /api/v1/satellites/62160 · /tle

For live sub-satellite position, see the globe view (requires WebGL).

§ Visibility from observer

Set your observer location to see the next 7 days of passes ≥ 10°. The values pass through the URL so the page stays shareable.

No JS? Fill the form by hand. The geolocation button needs JavaScript.